Tracking 17828 objects as of 31-July-2016
HD Live streaming from Space Station
objects crossing your sky now

GLOBALSTAR M048

Track GLOBALSTAR M048 now!
10-day predictions
GLOBALSTAR M048 is classified as:


NORAD ID: 25872
Int'l Code: 1999-041A
Perigee: 1,987.3 km
Apogee: 2,010.1 km
Inclination: 51.9 °
Period: 127.0 minutes
Semi major axis: 8369 km
RCS: 2.5743 m2 (large)
Launch date: July 25, 1999
Source: Globalstar (GLOB)
Launch site: AIR FORCE EASTERN TEST RANGE (AFETR)
Your satellite tracking list
Your tracking list is empty





NASA's NSSDC Master Catalog

Two Line Element Set (TLE):
1 25872U 99041A   16211.93888572 -.00000084 +00000-0 -38144-3 0  9995
2 25872 051.9371 116.4223 0013653 329.1038 112.2332 11.33806768757214
Source of the keplerian elements: AFSPC

N2YO: 959